This is the latest recevied weather packets stored in our database for station/object p43g-13. If no packets are shown the sender has not sent any weather packets the latest 10 day(s).
| Time | Temp. | Humidity | Pressure | Rain* | Wind** | Luminosity | Snow |
|---|---|---|---|---|---|---|---|
| 1787856476 | 31.11° C | 71% | 1010.1 hPa | 0 mm | - | 749 W/m² | - |
| 1787856176 | 31.67° C | 70% | 1010.2 hPa | 0 mm | - | 771 W/m² | - |
| 1787855876 | 32.22° C | 68% | 1010.3 hPa | 0 mm | - | 780 W/m² | - |
| 1787855575 | 31.67° C | 68% | 1010.2 hPa | 0 mm | - | 783 W/m² | - |
| 1787855277 | 31.67° C | 69% | 1010.3 hPa | 0 mm | - | 817 W/m² | - |
| 1787854976 | 31.67° C | 68% | 1010.4 hPa | 0 mm | - | 816 W/m² | - |
| 1787854676 | 31.67° C | 70% | 1010.5 hPa | 0 mm | - | 822 W/m² | - |
| 1787854376 | 31.67° C | 70% | 1010.7 hPa | 0 mm | - | 838 W/m² | - |
| 1787854076 | 31.67° C | 71% | 1010.4 hPa | 0 mm | - | 869 W/m² | - |
| 1787853775 | 31.67° C | 71% | 1010.7 hPa | 0 mm | - | 703 W/m² | - |
| 1787853475 | 32.22° C | 70% | 1010.7 hPa | 0 mm | - | 880 W/m² | - |
| 1787853176 | 32.22° C | 70% | 1010.8 hPa | 0 mm | - | 593 W/m² | - |
| 1787852875 | 31.67° C | 71% | 1010.7 hPa | 0 mm | - | 198 W/m² | - |
| 1787852576 | 31.67° C | 71% | 1010.9 hPa | 0 mm | - | 909 W/m² | - |
| 1787852278 | 31.67° C | 71% | 1011 hPa | 0 mm | - | 933 W/m² | - |
| 1787851976 | 32.22° C | 70% | 1011.1 hPa | 0 mm | - | 909 W/m² | - |
| 1787851676 | 31.67° C | 70% | 1011.1 hPa | 0 mm | - | 913 W/m² | - |
| 1787851376 | 32.22° C | 70% | 1011.2 hPa | 0 mm | - | 914 W/m² | - |
| 1787851076 | 31.67° C | 70% | 1011.2 hPa | 0 mm | - | 889 W/m² | - |
| 1787850776 | 31.67° C | 71% | 1011.1 hPa | 0 mm | - | 915 W/m² | - |
| 1787850476 | 31.67° C | 70% | 1011.3 hPa | 0 mm | - | 918 W/m² | - |
| 1787850176 | 31.67° C | 70% | 1011.3 hPa | 0 mm | - | 948 W/m² | - |
| 1787849877 | 31.67° C | 71% | 1011.5 hPa | 0 mm | - | 917 W/m² | - |
| 1787849576 | 31.67° C | 72% | 1011.7 hPa | 0 mm | - | 313 W/m² | - |
| 1787849276 | 32.22° C | 69% | 1011.5 hPa | 0 mm | - | 960 W/m² | - |
* Rain latest hour (hover to see other rain measurements)
** Current wind speed in m/s (hover to see current wind gust speed)